#datetime,building,power
2023-04-21T00:01:00,pkn,1.20
2023-04-21T00:02:00,pkn,3.60
2023-04-21T00:03:00,pkn,3.60
2023-04-21T00:04:00,pkn,2.40
2023-04-21T00:05:00,pkn,8.40
2023-04-21T00:06:00,pkn,4.80
2023-04-21T00:08:00,pkn,10.80
2023-04-21T00:09:00,pkn,4.80
2023-04-21T00:10:00,pkn,4.80
2023-04-21T00:12:00,pkn,8.40
2023-04-21T00:15:00,pkn,2.40
2023-04-21T00:17:00,pkn,1.20
2023-04-21T00:18:00,pkn,1.20
2023-04-21T00:20:00,pkn,2.40
2023-04-21T00:22:00,pkn,1.20
2023-04-21T00:24:00,pkn,9.60
2023-04-21T00:26:00,pkn,9.60
2023-04-21T00:27:00,pkn,3.60
2023-04-21T00:29:00,pkn,9.60
2023-04-21T00:31:00,pkn,9.60
2023-04-21T00:33:00,pkn,10.80
2023-04-21T00:35:00,pkn,9.60
2023-04-21T00:37:00,pkn,9.60
2023-04-21T00:38:00,pkn,4.80
2023-04-21T00:40:00,pkn,2.40
2023-04-21T00:41:00,pkn,1.20
2023-04-21T00:44:00,pkn,2.40
2023-04-21T00:46:00,pkn,1.20
2023-04-21T00:49:00,pkn,2.40
2023-04-21T00:51:00,pkn,1.20
2023-04-21T00:53:00,pkn,1.20
2023-04-21T00:56:00,pkn,1.20
2023-04-21T00:58:00,pkn,1.20
2023-04-21T01:00:00,pkn,2.40
2023-04-21T01:02:00,pkn,9.60
2023-04-21T01:04:00,pkn,9.60
2023-04-21T01:05:00,pkn,4.80
2023-04-21T01:07:00,pkn,9.60
2023-04-21T01:08:00,pkn,1.20
2023-04-21T01:09:00,pkn,8.40
2023-04-21T01:11:00,pkn,3.60
2023-04-21T01:13:00,pkn,1.20
2023-04-21T01:15:00,pkn,1.20
2023-04-21T01:17:00,pkn,1.20
2023-04-21T01:19:00,pkn,1.20
2023-04-21T01:21:00,pkn,1.20
2023-04-21T01:22:00,pkn,1.20
2023-04-21T01:24:00,pkn,1.20
2023-04-21T01:26:00,pkn,1.20
2023-04-21T01:28:00,pkn,1.20
2023-04-21T01:30:00,pkn,1.20
2023-04-21T01:31:00,pkn,1.20
2023-04-21T01:35:00,pkn,2.40
2023-04-21T01:37:00,pkn,1.20
2023-04-21T01:39:00,pkn,1.20
2023-04-21T01:41:00,pkn,1.20
2023-04-21T01:43:00,pkn,1.20
2023-04-21T01:45:00,pkn,1.20
2023-04-21T01:47:00,pkn,1.20
2023-04-21T01:49:00,pkn,6.00
2023-04-21T01:50:00,pkn,1.20
2023-04-21T01:51:00,pkn,8.40
2023-04-21T01:52:00,pkn,1.20
2023-04-21T01:53:00,pkn,8.40
2023-04-21T01:54:00,pkn,4.80
2023-04-21T01:56:00,pkn,7.20
2023-04-21T01:58:00,pkn,1.20
2023-04-21T02:00:00,pkn,1.20
2023-04-21T02:01:00,pkn,1.20
2023-04-21T02:03:00,pkn,1.20
2023-04-21T02:05:00,pkn,1.20
2023-04-21T02:07:00,pkn,1.20
2023-04-21T02:09:00,pkn,1.20
2023-04-21T02:11:00,pkn,1.20
2023-04-21T02:12:00,pkn,1.20
2023-04-21T02:14:00,pkn,1.20
2023-04-21T02:17:00,pkn,1.20
2023-04-21T02:18:00,pkn,1.20
2023-04-21T02:20:00,pkn,1.20
2023-04-21T02:22:00,pkn,1.20
2023-04-21T02:24:00,pkn,1.20
2023-04-21T02:26:00,pkn,1.20
2023-04-21T02:28:00,pkn,1.20
2023-04-21T02:29:00,pkn,1.20
2023-04-21T02:31:00,pkn,1.20
2023-04-21T02:33:00,pkn,1.20
2023-04-21T02:34:00,pkn,1.20
2023-04-21T02:36:00,pkn,1.20
2023-04-21T02:40:00,pkn,1.20
2023-04-21T02:42:00,pkn,2.40
2023-04-21T02:44:00,pkn,1.20
2023-04-21T02:46:00,pkn,2.40
2023-04-21T02:47:00,pkn,1.20
2023-04-21T02:48:00,pkn,9.60
2023-04-21T02:50:00,pkn,9.60
2023-04-21T02:51:00,pkn,3.60
2023-04-21T02:52:00,pkn,4.80
2023-04-21T02:53:00,pkn,1.20
2023-04-21T02:54:00,pkn,7.20
2023-04-21T02:56:00,pkn,1.20
2023-04-21T02:57:00,pkn,1.20
2023-04-21T02:59:00,pkn,1.20
2023-04-21T03:01:00,pkn,1.20
2023-04-21T03:03:00,pkn,1.20
2023-04-21T03:05:00,pkn,1.20
2023-04-21T03:07:00,pkn,1.20
2023-04-21T03:09:00,pkn,1.20
2023-04-21T03:12:00,pkn,1.20
2023-04-21T03:14:00,pkn,1.20
2023-04-21T03:15:00,pkn,1.20
2023-04-21T03:17:00,pkn,1.20
2023-04-21T03:18:00,pkn,1.20
2023-04-21T03:20:00,pkn,1.20
2023-04-21T03:22:00,pkn,1.20
2023-04-21T03:24:00,pkn,1.20
2023-04-21T03:26:00,pkn,1.20
2023-04-21T03:28:00,pkn,2.40
2023-04-21T03:30:00,pkn,1.20
2023-04-21T03:32:00,pkn,1.20
2023-04-21T03:34:00,pkn,1.20
2023-04-21T03:35:00,pkn,1.20
2023-04-21T03:38:00,pkn,1.20
2023-04-21T03:39:00,pkn,1.20
2023-04-21T03:41:00,pkn,1.20
2023-04-21T03:43:00,pkn,1.20
2023-04-21T03:45:00,pkn,1.20
2023-04-21T03:47:00,pkn,1.20
2023-04-21T03:49:00,pkn,1.20
2023-04-21T03:51:00,pkn,1.20
2023-04-21T03:53:00,pkn,1.20
2023-04-21T03:55:00,pkn,1.20
2023-04-21T03:57:00,pkn,1.20
2023-04-21T03:59:00,pkn,1.20
2023-04-21T04:00:00,pkn,1.20
2023-04-21T04:02:00,pkn,8.40
2023-04-21T04:03:00,pkn,4.80
2023-04-21T04:05:00,pkn,9.60
2023-04-21T04:06:00,pkn,4.80
2023-04-21T04:07:00,pkn,1.20
2023-04-21T04:08:00,pkn,7.20
2023-04-21T04:09:00,pkn,1.20
2023-04-21T04:12:00,pkn,1.20
2023-04-21T04:13:00,pkn,1.20
2023-04-21T04:15:00,pkn,1.20
2023-04-21T04:17:00,pkn,1.20
2023-04-21T04:19:00,pkn,1.20
2023-04-21T04:21:00,pkn,1.20
2023-04-21T04:22:00,pkn,1.20
2023-04-21T04:24:00,pkn,1.20
2023-04-21T04:27:00,pkn,1.20
2023-04-21T04:29:00,pkn,1.20
2023-04-21T04:31:00,pkn,1.20
2023-04-21T04:33:00,pkn,1.20
2023-04-21T04:35:00,pkn,1.20
2023-04-21T04:37:00,pkn,2.40
2023-04-21T04:39:00,pkn,1.20
2023-04-21T04:43:00,pkn,1.20
2023-04-21T04:44:00,pkn,1.20
2023-04-21T04:45:00,pkn,1.20
2023-04-21T04:48:00,pkn,1.20
2023-04-21T04:50:00,pkn,1.20
2023-04-21T04:51:00,pkn,1.20
2023-04-21T04:54:00,pkn,1.20
2023-04-21T04:56:00,pkn,1.20
2023-04-21T04:57:00,pkn,1.20
2023-04-21T04:59:00,pkn,1.20
2023-04-21T05:01:00,pkn,1.20
2023-04-21T05:03:00,pkn,1.20
2023-04-21T05:05:00,pkn,1.20
2023-04-21T05:07:00,pkn,1.20
2023-04-21T05:09:00,pkn,1.20
2023-04-21T05:10:00,pkn,1.20
2023-04-21T05:12:00,pkn,1.20
2023-04-21T05:13:00,pkn,1.20
2023-04-21T05:15:00,pkn,1.20
2023-04-21T05:17:00,pkn,1.20
2023-04-21T05:19:00,pkn,1.20
2023-04-21T05:21:00,pkn,1.20
2023-04-21T05:24:00,pkn,1.20
2023-04-21T05:25:00,pkn,1.20
2023-04-21T05:27:00,pkn,1.20
2023-04-21T05:30:00,pkn,1.20
2023-04-21T05:31:00,pkn,1.20
2023-04-21T05:33:00,pkn,1.20
2023-04-21T05:34:00,pkn,1.20
2023-04-21T05:36:00,pkn,1.20
2023-04-21T05:38:00,pkn,2.40
2023-04-21T05:40:00,pkn,8.40
2023-04-21T05:42:00,pkn,9.60
2023-04-21T05:43:00,pkn,6.00
2023-04-21T05:45:00,pkn,8.40
2023-04-21T05:47:00,pkn,2.40
2023-04-21T05:49:00,pkn,1.20
2023-04-21T05:51:00,pkn,2.40
2023-04-21T05:54:00,pkn,1.20
2023-04-21T05:55:00,pkn,1.20
2023-04-21T05:57:00,pkn,1.20
2023-04-21T06:00:00,pkn,2.40
2023-04-21T06:02:00,pkn,1.20
2023-04-21T06:04:00,pkn,1.20
2023-04-21T06:06:00,pkn,1.20
2023-04-21T06:07:00,pkn,1.20
2023-04-21T06:09:00,pkn,1.20
2023-04-21T06:11:00,pkn,1.20
2023-04-21T06:13:00,pkn,1.20
2023-04-21T06:15:00,pkn,1.20
2023-04-21T06:17:00,pkn,2.40
2023-04-21T06:20:00,pkn,2.40
2023-04-21T06:23:00,pkn,1.20
2023-04-21T06:24:00,pkn,1.20
2023-04-21T06:26:00,pkn,1.20
2023-04-21T06:28:00,pkn,1.20
2023-04-21T06:29:00,pkn,1.20
2023-04-21T06:31:00,pkn,1.20
2023-04-21T06:33:00,pkn,1.20
2023-04-21T06:34:00,pkn,1.20
2023-04-21T06:36:00,pkn,1.20
2023-04-21T06:38:00,pkn,1.20
2023-04-21T06:40:00,pkn,1.20
2023-04-21T06:42:00,pkn,1.20
2023-04-21T06:43:00,pkn,1.20
2023-04-21T06:45:00,pkn,1.20
2023-04-21T06:47:00,pkn,1.20
2023-04-21T06:48:00,pkn,1.20
2023-04-21T06:51:00,pkn,1.20
2023-04-21T06:53:00,pkn,2.40
2023-04-21T06:56:00,pkn,1.20
2023-04-21T06:58:00,pkn,2.40
2023-04-21T07:01:00,pkn,1.20
2023-04-21T07:03:00,pkn,1.20
2023-04-21T07:04:00,pkn,1.20
2023-04-21T07:05:00,pkn,1.20
2023-04-21T07:07:00,pkn,1.20
2023-04-21T07:09:00,pkn,1.20
2023-04-21T07:11:00,pkn,1.20
2023-04-21T07:14:00,pkn,2.40
2023-04-21T07:16:00,pkn,1.20
2023-04-21T07:18:00,pkn,1.20
2023-04-21T07:20:00,pkn,2.40
2023-04-21T07:21:00,pkn,6.00
2023-04-21T07:22:00,pkn,4.80
2023-04-21T07:23:00,pkn,1.20
2023-04-21T07:24:00,pkn,9.60
2023-04-21T07:26:00,pkn,8.40
2023-04-21T07:28:00,pkn,7.20
2023-04-21T07:30:00,pkn,2.40
2023-04-21T07:33:00,pkn,1.20
2023-04-21T07:34:00,pkn,1.20
2023-04-21T07:38:00,pkn,2.40
2023-04-21T07:40:00,pkn,1.20
2023-04-21T07:43:00,pkn,1.20
2023-04-21T07:45:00,pkn,1.20
2023-04-21T07:47:00,pkn,1.20
2023-04-21T07:49:00,pkn,1.20
2023-04-21T07:50:00,pkn,1.20
2023-04-21T07:53:00,pkn,1.20
2023-04-21T07:55:00,pkn,1.20
2023-04-21T07:57:00,pkn,1.20
2023-04-21T07:59:00,pkn,1.20
2023-04-21T08:01:00,pkn,1.20
2023-04-21T08:02:00,pkn,1.20
2023-04-21T08:04:00,pkn,8.40
2023-04-21T08:06:00,pkn,9.60
2023-04-21T08:08:00,pkn,9.60
2023-04-21T08:09:00,pkn,3.60
2023-04-21T08:10:00,pkn,4.80
2023-04-21T08:12:00,pkn,9.60
2023-04-21T08:13:00,pkn,4.80
2023-04-21T08:15:00,pkn,3.60
2023-04-21T08:16:00,pkn,1.20
2023-04-21T08:18:00,pkn,1.20
2023-04-21T08:20:00,pkn,1.20
2023-04-21T08:23:00,pkn,1.20
2023-04-21T08:25:00,pkn,2.40
2023-04-21T08:27:00,pkn,1.20
2023-04-21T08:29:00,pkn,1.20
2023-04-21T08:32:00,pkn,1.20
2023-04-21T08:34:00,pkn,1.20
2023-04-21T08:36:00,pkn,9.60
2023-04-21T08:37:00,pkn,4.80
2023-04-21T08:38:00,pkn,4.80
2023-04-21T08:40:00,pkn,8.40
2023-04-21T08:42:00,pkn,9.60
2023-04-21T08:44:00,pkn,9.60
2023-04-21T08:45:00,pkn,3.60
2023-04-21T08:47:00,pkn,9.60
2023-04-21T08:49:00,pkn,7.20
2023-04-21T08:51:00,pkn,1.20
2023-04-21T08:53:00,pkn,1.20
2023-04-21T08:55:00,pkn,1.20
2023-04-21T08:57:00,pkn,1.20
2023-04-21T09:00:00,pkn,1.20
2023-04-21T09:02:00,pkn,1.20
2023-04-21T09:03:00,pkn,1.20
2023-04-21T09:05:00,pkn,1.20
2023-04-21T09:07:00,pkn,1.20
2023-04-21T09:09:00,pkn,1.20
2023-04-21T09:11:00,pkn,9.60
2023-04-21T09:13:00,pkn,9.60
2023-04-21T09:15:00,pkn,8.40
2023-04-21T09:16:00,pkn,4.80
2023-04-21T09:17:00,pkn,1.20
2023-04-21T09:18:00,pkn,8.40
2023-04-21T09:19:00,pkn,2.40
2023-04-21T09:20:00,pkn,7.20
2023-04-21T09:22:00,pkn,9.60
2023-04-21T09:23:00,pkn,3.60
2023-04-21T09:24:00,pkn,7.20
2023-04-21T09:25:00,pkn,3.60
2023-04-21T09:26:00,pkn,1.20
2023-04-21T09:27:00,pkn,8.40
2023-04-21T09:28:00,pkn,4.80
2023-04-21T09:30:00,pkn,9.60
2023-04-21T09:31:00,pkn,3.60
2023-04-21T09:32:00,pkn,1.20
2023-04-21T09:33:00,pkn,8.40
2023-04-21T09:34:00,pkn,1.20
2023-04-21T09:35:00,pkn,9.60
2023-04-21T09:37:00,pkn,9.60
2023-04-21T09:38:00,pkn,8.40
2023-04-21T09:39:00,pkn,8.40
2023-04-21T09:40:00,pkn,1.20
2023-04-21T09:41:00,pkn,8.40
2023-04-21T09:42:00,pkn,4.80
2023-04-21T09:44:00,pkn,9.60
2023-04-21T09:45:00,pkn,4.80
2023-04-21T09:46:00,pkn,1.20
2023-04-21T09:47:00,pkn,7.20
2023-04-21T09:48:00,pkn,6.00
2023-04-21T09:50:00,pkn,8.40
2023-04-21T09:52:00,pkn,9.60
2023-04-21T09:54:00,pkn,9.60
2023-04-21T09:55:00,pkn,3.60
2023-04-21T09:57:00,pkn,9.60
2023-04-21T09:59:00,pkn,8.40
2023-04-21T10:01:00,pkn,1.20
2023-04-21T10:03:00,pkn,1.20
2023-04-21T10:05:00,pkn,1.20
2023-04-21T10:07:00,pkn,1.20
2023-04-21T10:08:00,pkn,1.20
2023-04-21T10:09:00,pkn,1.20
2023-04-21T10:13:00,pkn,7.20
2023-04-21T10:15:00,pkn,10.80
2023-04-21T10:16:00,pkn,3.60
2023-04-21T10:18:00,pkn,9.60
2023-04-21T10:20:00,pkn,9.60
2023-04-21T10:21:00,pkn,3.60
2023-04-21T10:23:00,pkn,9.60
2023-04-21T10:25:00,pkn,9.60
2023-04-21T10:27:00,pkn,6.00
2023-04-21T10:28:00,pkn,1.20
2023-04-21T10:30:00,pkn,1.20
2023-04-21T10:33:00,pkn,1.20
2023-04-21T10:37:00,pkn,1.20
2023-04-21T10:39:00,pkn,1.20
2023-04-21T10:40:00,pkn,1.20
2023-04-21T10:42:00,pkn,2.40
2023-04-21T10:43:00,pkn,6.00
2023-04-21T10:45:00,pkn,7.20
2023-04-21T10:46:00,pkn,6.00
2023-04-21T10:48:00,pkn,7.20
2023-04-21T10:50:00,pkn,9.60
2023-04-21T10:51:00,pkn,6.00
2023-04-21T10:53:00,pkn,8.40
2023-04-21T10:55:00,pkn,9.60
2023-04-21T10:56:00,pkn,3.60
2023-04-21T10:57:00,pkn,1.20
2023-04-21T10:58:00,pkn,8.40
2023-04-21T11:00:00,pkn,8.40
2023-04-21T11:01:00,pkn,4.80
2023-04-21T11:02:00,pkn,6.00
2023-04-21T11:04:00,pkn,8.40
2023-04-21T11:05:00,pkn,4.80
2023-04-21T11:06:00,pkn,4.80
2023-04-21T11:08:00,pkn,9.60
2023-04-21T11:09:00,pkn,3.60
2023-04-21T11:11:00,pkn,8.40
2023-04-21T11:12:00,pkn,4.80
2023-04-21T11:14:00,pkn,3.60
2023-04-21T11:16:00,pkn,1.20
2023-04-21T11:18:00,pkn,1.20
2023-04-21T11:21:00,pkn,1.20
2023-04-21T11:23:00,pkn,2.40
2023-04-21T11:25:00,pkn,1.20
2023-04-21T11:27:00,pkn,3.60
2023-04-21T11:28:00,pkn,4.80
2023-04-21T11:30:00,pkn,8.40
2023-04-21T11:32:00,pkn,9.60
2023-04-21T11:34:00,pkn,9.60
2023-04-21T11:36:00,pkn,9.60
2023-04-21T11:37:00,pkn,3.60
2023-04-21T11:38:00,pkn,4.80
2023-04-21T11:40:00,pkn,9.60
2023-04-21T11:42:00,pkn,2.40
2023-04-21T11:45:00,pkn,1.20
2023-04-21T11:48:00,pkn,1.20
2023-04-21T11:50:00,pkn,1.20
2023-04-21T11:52:00,pkn,1.20
2023-04-21T11:53:00,pkn,1.20
2023-04-21T11:55:00,pkn,1.20
2023-04-21T11:57:00,pkn,1.20
2023-04-21T11:58:00,pkn,1.20
2023-04-21T11:59:00,pkn,3.60
2023-04-21T12:00:00,pkn,4.80
2023-04-21T12:01:00,pkn,4.80
2023-04-21T12:03:00,pkn,9.60
2023-04-21T12:05:00,pkn,8.40
2023-04-21T12:06:00,pkn,4.80
2023-04-21T12:08:00,pkn,10.80
2023-04-21T12:09:00,pkn,7.20
2023-04-21T12:11:00,pkn,4.80
2023-04-21T12:13:00,pkn,1.20
2023-04-21T12:15:00,pkn,1.20
2023-04-21T12:17:00,pkn,3.60
2023-04-21T12:19:00,pkn,3.60
2023-04-21T12:21:00,pkn,4.80
2023-04-21T12:23:00,pkn,3.60
2023-04-21T12:24:00,pkn,1.20
2023-04-21T12:26:00,pkn,4.80
2023-04-21T12:28:00,pkn,3.60
2023-04-21T12:29:00,pkn,2.40
2023-04-21T12:31:00,pkn,10.80
2023-04-21T12:33:00,pkn,12.00
2023-04-21T12:35:00,pkn,10.80
2023-04-21T12:37:00,pkn,12.00
2023-04-21T12:39:00,pkn,12.00
2023-04-21T12:41:00,pkn,7.20
2023-04-21T12:42:00,pkn,1.20
2023-04-21T12:43:00,pkn,2.40
2023-04-21T12:45:00,pkn,3.60
2023-04-21T12:46:00,pkn,2.40
2023-04-21T12:47:00,pkn,1.20
2023-04-21T12:49:00,pkn,4.80
2023-04-21T12:50:00,pkn,3.60
2023-04-21T12:52:00,pkn,7.20
2023-04-21T12:54:00,pkn,7.20
2023-04-21T12:56:00,pkn,6.00
2023-04-21T12:57:00,pkn,3.60
2023-04-21T12:59:00,pkn,7.20
2023-04-21T13:01:00,pkn,6.00
2023-04-21T13:03:00,pkn,6.00
2023-04-21T13:04:00,pkn,8.40
2023-04-21T13:06:00,pkn,15.60
2023-04-21T13:08:00,pkn,14.40
2023-04-21T13:10:00,pkn,13.20
2023-04-21T13:11:00,pkn,4.80
2023-04-21T13:12:00,pkn,7.20
2023-04-21T13:14:00,pkn,6.00
2023-04-21T13:16:00,pkn,6.00
2023-04-21T13:18:00,pkn,6.00
2023-04-21T13:20:00,pkn,4.80
2023-04-21T13:21:00,pkn,2.40
2023-04-21T13:23:00,pkn,3.60
2023-04-21T13:24:00,pkn,2.40
2023-04-21T13:26:00,pkn,3.60
2023-04-21T13:28:00,pkn,3.60
2023-04-21T13:30:00,pkn,3.60
2023-04-21T13:32:00,pkn,3.60
2023-04-21T13:34:00,pkn,4.80
2023-04-21T13:35:00,pkn,1.20
2023-04-21T13:37:00,pkn,3.60
2023-04-21T13:39:00,pkn,7.20
2023-04-21T13:41:00,pkn,13.20
2023-04-21T13:43:00,pkn,12.00
2023-04-21T13:44:00,pkn,4.80
2023-04-21T13:46:00,pkn,12.00
2023-04-21T13:48:00,pkn,10.80
2023-04-21T13:50:00,pkn,8.40
2023-04-21T13:52:00,pkn,3.60
2023-04-21T13:54:00,pkn,4.80
2023-04-21T13:55:00,pkn,1.20
2023-04-21T13:57:00,pkn,3.60
2023-04-21T13:59:00,pkn,3.60
2023-04-21T14:02:00,pkn,6.00
2023-04-21T14:04:00,pkn,3.60
2023-04-21T14:06:00,pkn,3.60
2023-04-21T14:08:00,pkn,3.60
2023-04-21T14:09:00,pkn,2.40
2023-04-21T14:11:00,pkn,8.40
2023-04-21T14:13:00,pkn,12.00
2023-04-21T14:15:00,pkn,12.00
2023-04-21T14:17:00,pkn,10.80
2023-04-21T14:18:00,pkn,6.00
2023-04-21T14:20:00,pkn,9.60
2023-04-21T14:21:00,pkn,2.40
2023-04-21T14:23:00,pkn,3.60
2023-04-21T14:25:00,pkn,3.60
2023-04-21T14:26:00,pkn,1.20
2023-04-21T14:28:00,pkn,4.80
2023-04-21T14:30:00,pkn,3.60
2023-04-21T14:32:00,pkn,4.80
2023-04-21T14:34:00,pkn,3.60
2023-04-21T14:35:00,pkn,7.20
2023-04-21T14:37:00,pkn,13.20
2023-04-21T14:38:00,pkn,6.00
2023-04-21T14:40:00,pkn,13.20
2023-04-21T14:42:00,pkn,10.80
2023-04-21T14:43:00,pkn,7.20
2023-04-21T14:44:00,pkn,2.40
2023-04-21T14:45:00,pkn,7.20
2023-04-21T14:46:00,pkn,9.60
2023-04-21T14:48:00,pkn,10.80
2023-04-21T14:49:00,pkn,7.20
2023-04-21T14:51:00,pkn,12.00
2023-04-21T14:53:00,pkn,13.20
2023-04-21T14:54:00,pkn,6.00
2023-04-21T14:55:00,pkn,6.00
2023-04-21T14:57:00,pkn,13.20
2023-04-21T14:58:00,pkn,6.00
2023-04-21T15:00:00,pkn,12.00
2023-04-21T15:02:00,pkn,12.00
2023-04-21T15:03:00,pkn,7.20
2023-04-21T15:05:00,pkn,12.00
2023-04-21T15:07:00,pkn,12.00
2023-04-21T15:08:00,pkn,6.00
2023-04-21T15:10:00,pkn,12.00
2023-04-21T15:11:00,pkn,7.20
2023-04-21T15:13:00,pkn,10.80
2023-04-21T15:14:00,pkn,7.20
2023-04-21T15:15:00,pkn,2.40
2023-04-21T15:16:00,pkn,7.20
2023-04-21T15:17:00,pkn,3.60
2023-04-21T15:18:00,pkn,8.40
2023-04-21T15:19:00,pkn,4.80
2023-04-21T15:20:00,pkn,9.60
2023-04-21T15:21:00,pkn,3.60
2023-04-21T15:23:00,pkn,4.80
2023-04-21T15:25:00,pkn,3.60
2023-04-21T15:26:00,pkn,2.40
2023-04-21T15:28:00,pkn,4.80
2023-04-21T15:30:00,pkn,3.60
2023-04-21T15:32:00,pkn,4.80
2023-04-21T15:34:00,pkn,4.80
2023-04-21T15:35:00,pkn,8.40
2023-04-21T15:36:00,pkn,7.20
2023-04-21T15:37:00,pkn,4.80
2023-04-21T15:38:00,pkn,8.40
2023-04-21T15:40:00,pkn,12.00
2023-04-21T15:42:00,pkn,12.00
2023-04-21T15:43:00,pkn,7.20
2023-04-21T15:44:00,pkn,6.00
2023-04-21T15:46:00,pkn,10.80
2023-04-21T15:48:00,pkn,10.80
2023-04-21T15:50:00,pkn,1.20
2023-04-21T15:51:00,pkn,1.20
2023-04-21T15:54:00,pkn,2.40
2023-04-21T15:56:00,pkn,1.20
2023-04-21T15:57:00,pkn,1.20
2023-04-21T15:59:00,pkn,1.20
2023-04-21T16:01:00,pkn,1.20
2023-04-21T16:03:00,pkn,2.40
2023-04-21T16:05:00,pkn,1.20
2023-04-21T16:06:00,pkn,3.60
2023-04-21T16:07:00,pkn,1.20
2023-04-21T16:08:00,pkn,8.40
2023-04-21T16:09:00,pkn,4.80
2023-04-21T16:11:00,pkn,9.60
2023-04-21T16:12:00,pkn,6.00
2023-04-21T16:14:00,pkn,9.60
2023-04-21T16:16:00,pkn,9.60
2023-04-21T16:18:00,pkn,3.60
2023-04-21T16:20:00,pkn,2.40
2023-04-21T16:23:00,pkn,2.40
2023-04-21T16:25:00,pkn,1.20
2023-04-21T16:26:00,pkn,1.20
2023-04-21T16:28:00,pkn,1.20
2023-04-21T16:29:00,pkn,1.20
2023-04-21T16:31:00,pkn,1.20
2023-04-21T16:33:00,pkn,2.40
2023-04-21T16:35:00,pkn,1.20
2023-04-21T16:37:00,pkn,2.40
2023-04-21T16:39:00,pkn,2.40
2023-04-21T16:40:00,pkn,4.80
2023-04-21T16:42:00,pkn,9.60
2023-04-21T16:43:00,pkn,4.80
2023-04-21T16:45:00,pkn,10.80
2023-04-21T16:47:00,pkn,9.60
2023-04-21T16:48:00,pkn,4.80
2023-04-21T16:50:00,pkn,7.20
2023-04-21T16:51:00,pkn,1.20
2023-04-21T16:53:00,pkn,1.20
2023-04-21T16:55:00,pkn,1.20
2023-04-21T16:57:00,pkn,2.40
2023-04-21T16:59:00,pkn,1.20
2023-04-21T17:01:00,pkn,2.40
2023-04-21T17:03:00,pkn,1.20
2023-04-21T17:05:00,pkn,2.40
2023-04-21T17:07:00,pkn,1.20
2023-04-21T17:09:00,pkn,2.40
2023-04-21T17:10:00,pkn,1.20
2023-04-21T17:12:00,pkn,1.20
2023-04-21T17:14:00,pkn,2.40
2023-04-21T17:15:00,pkn,1.20
2023-04-21T17:17:00,pkn,1.20
2023-04-21T17:19:00,pkn,2.40
2023-04-21T17:20:00,pkn,8.40
2023-04-21T17:22:00,pkn,9.60
2023-04-21T17:24:00,pkn,10.80
2023-04-21T17:26:00,pkn,9.60
2023-04-21T17:27:00,pkn,4.80
2023-04-21T17:29:00,pkn,9.60
2023-04-21T17:31:00,pkn,2.40
2023-04-21T17:33:00,pkn,2.40
2023-04-21T17:35:00,pkn,2.40
2023-04-21T17:36:00,pkn,1.20
2023-04-21T17:38:00,pkn,2.40
2023-04-21T17:40:00,pkn,2.40
2023-04-21T17:42:00,pkn,1.20
2023-04-21T17:43:00,pkn,1.20
2023-04-21T17:44:00,pkn,1.20
2023-04-21T17:46:00,pkn,1.20
2023-04-21T17:48:00,pkn,2.40
2023-04-21T17:51:00,pkn,2.40
2023-04-21T17:53:00,pkn,1.20
2023-04-21T17:55:00,pkn,2.40
2023-04-21T17:57:00,pkn,1.20
2023-04-21T17:58:00,pkn,1.20
2023-04-21T18:00:00,pkn,1.20
2023-04-21T18:02:00,pkn,2.40
2023-04-21T18:03:00,pkn,1.20
2023-04-21T18:04:00,pkn,1.20
2023-04-21T18:06:00,pkn,10.80
2023-04-21T18:07:00,pkn,6.00
2023-04-21T18:09:00,pkn,8.40
2023-04-21T18:11:00,pkn,9.60
2023-04-21T18:12:00,pkn,4.80
2023-04-21T18:14:00,pkn,3.60
2023-04-21T18:15:00,pkn,1.20
2023-04-21T18:17:00,pkn,1.20
2023-04-21T18:19:00,pkn,3.60
2023-04-21T18:20:00,pkn,3.60
2023-04-21T18:22:00,pkn,8.40
2023-04-21T18:23:00,pkn,4.80
2023-04-21T18:25:00,pkn,9.60
2023-04-21T18:27:00,pkn,10.80
2023-04-21T18:29:00,pkn,9.60
2023-04-21T18:31:00,pkn,10.80
2023-04-21T18:32:00,pkn,6.00
2023-04-21T18:34:00,pkn,12.00
2023-04-21T18:36:00,pkn,14.40
2023-04-21T18:37:00,pkn,4.80
2023-04-21T18:38:00,pkn,2.40
2023-04-21T18:40:00,pkn,7.20
2023-04-21T18:41:00,pkn,4.80
2023-04-21T18:43:00,pkn,7.20
2023-04-21T18:45:00,pkn,9.60
2023-04-21T18:46:00,pkn,4.80
2023-04-21T18:47:00,pkn,4.80
2023-04-21T18:49:00,pkn,15.60
2023-04-21T18:51:00,pkn,12.00
2023-04-21T18:52:00,pkn,6.00
2023-04-21T18:54:00,pkn,12.00
2023-04-21T18:56:00,pkn,8.40
2023-04-21T18:57:00,pkn,1.20
2023-04-21T18:59:00,pkn,2.40
2023-04-21T19:01:00,pkn,2.40
2023-04-21T19:04:00,pkn,2.40
2023-04-21T19:06:00,pkn,1.20
2023-04-21T19:08:00,pkn,1.20
2023-04-21T19:10:00,pkn,1.20
2023-04-21T19:11:00,pkn,1.20
2023-04-21T19:13:00,pkn,1.20
2023-04-21T19:15:00,pkn,1.20
2023-04-21T19:16:00,pkn,1.20
2023-04-21T19:17:00,pkn,1.20
2023-04-21T19:19:00,pkn,1.20
2023-04-21T19:21:00,pkn,1.20
2023-04-21T19:23:00,pkn,1.20
2023-04-21T19:25:00,pkn,2.40
2023-04-21T19:27:00,pkn,2.40
2023-04-21T19:28:00,pkn,6.00
2023-04-21T19:29:00,pkn,4.80
2023-04-21T19:31:00,pkn,10.80
2023-04-21T19:33:00,pkn,8.40
2023-04-21T19:35:00,pkn,10.80
2023-04-21T19:37:00,pkn,10.80
2023-04-21T19:39:00,pkn,2.40
2023-04-21T19:41:00,pkn,2.40
2023-04-21T19:42:00,pkn,1.20
2023-04-21T19:44:00,pkn,1.20
2023-04-21T19:46:00,pkn,2.40
2023-04-21T19:47:00,pkn,1.20
2023-04-21T19:49:00,pkn,2.40
2023-04-21T19:51:00,pkn,1.20
2023-04-21T19:53:00,pkn,2.40
2023-04-21T19:54:00,pkn,1.20
2023-04-21T19:56:00,pkn,2.40
2023-04-21T19:57:00,pkn,1.20
2023-04-21T19:59:00,pkn,1.20
2023-04-21T20:00:00,pkn,1.20
2023-04-21T20:02:00,pkn,2.40
2023-04-21T20:05:00,pkn,2.40
2023-04-21T20:06:00,pkn,1.20
2023-04-21T20:08:00,pkn,1.20
2023-04-21T20:09:00,pkn,1.20
2023-04-21T20:11:00,pkn,2.40
2023-04-21T20:12:00,pkn,1.20
2023-04-21T20:14:00,pkn,2.40
2023-04-21T20:16:00,pkn,1.20
2023-04-21T20:18:00,pkn,3.60
2023-04-21T20:19:00,pkn,4.80
2023-04-21T20:21:00,pkn,9.60
2023-04-21T20:22:00,pkn,4.80
2023-04-21T20:24:00,pkn,10.80
2023-04-21T20:26:00,pkn,9.60
2023-04-21T20:28:00,pkn,2.40
2023-04-21T20:30:00,pkn,2.40
2023-04-21T20:32:00,pkn,2.40
2023-04-21T20:33:00,pkn,1.20
2023-04-21T20:35:00,pkn,1.20
2023-04-21T20:37:00,pkn,2.40
2023-04-21T20:38:00,pkn,1.20
2023-04-21T20:40:00,pkn,2.40
2023-04-21T20:42:00,pkn,1.20
2023-04-21T20:44:00,pkn,2.40
2023-04-21T20:46:00,pkn,2.40
2023-04-21T20:48:00,pkn,2.40
2023-04-21T20:51:00,pkn,2.40
2023-04-21T20:52:00,pkn,4.80
2023-04-21T20:53:00,pkn,3.60
2023-04-21T20:54:00,pkn,4.80
2023-04-21T20:55:00,pkn,6.00
2023-04-21T20:57:00,pkn,9.60
2023-04-21T20:58:00,pkn,6.00
2023-04-21T21:00:00,pkn,10.80
2023-04-21T21:02:00,pkn,9.60
2023-04-21T21:03:00,pkn,1.20
2023-04-21T21:04:00,pkn,8.40
2023-04-21T21:05:00,pkn,4.80
2023-04-21T21:06:00,pkn,6.00
2023-04-21T21:07:00,pkn,4.80
2023-04-21T21:08:00,pkn,6.00
2023-04-21T21:10:00,pkn,9.60
2023-04-21T21:11:00,pkn,6.00
2023-04-21T21:13:00,pkn,10.80
2023-04-21T21:15:00,pkn,9.60
2023-04-21T21:16:00,pkn,4.80
2023-04-21T21:17:00,pkn,3.60
2023-04-21T21:19:00,pkn,2.40
2023-04-21T21:21:00,pkn,2.40
2023-04-21T21:22:00,pkn,1.20
2023-04-21T21:24:00,pkn,1.20
2023-04-21T21:26:00,pkn,2.40
2023-04-21T21:28:00,pkn,2.40
2023-04-21T21:30:00,pkn,9.60
2023-04-21T21:32:00,pkn,8.40
2023-04-21T21:34:00,pkn,10.80
2023-04-21T21:36:00,pkn,9.60
2023-04-21T21:38:00,pkn,10.80
2023-04-21T21:39:00,pkn,4.80
2023-04-21T21:41:00,pkn,9.60
2023-04-21T21:43:00,pkn,8.40
2023-04-21T21:44:00,pkn,1.20
2023-04-21T21:46:00,pkn,1.20
2023-04-21T21:48:00,pkn,2.40
2023-04-21T21:50:00,pkn,2.40
2023-04-21T21:52:00,pkn,1.20
2023-04-21T21:54:00,pkn,2.40
2023-04-21T21:56:00,pkn,1.20
2023-04-21T21:57:00,pkn,1.20
2023-04-21T21:59:00,pkn,1.20
2023-04-21T22:01:00,pkn,2.40
2023-04-21T22:02:00,pkn,1.20
2023-04-21T22:03:00,pkn,8.40
2023-04-21T22:04:00,pkn,6.00
2023-04-21T22:05:00,pkn,4.80
2023-04-21T22:07:00,pkn,9.60
2023-04-21T22:09:00,pkn,10.80
2023-04-21T22:10:00,pkn,3.60
2023-04-21T22:11:00,pkn,4.80
2023-04-21T22:13:00,pkn,2.40
2023-04-21T22:16:00,pkn,2.40
2023-04-21T22:18:00,pkn,1.20
2023-04-21T22:20:00,pkn,2.40
2023-04-21T22:22:00,pkn,1.20
2023-04-21T22:24:00,pkn,1.20
2023-04-21T22:26:00,pkn,1.20
2023-04-21T22:27:00,pkn,1.20
2023-04-21T22:29:00,pkn,1.20
2023-04-21T22:31:00,pkn,1.20
2023-04-21T22:32:00,pkn,1.20
2023-04-21T22:34:00,pkn,1.20
2023-04-21T22:36:00,pkn,6.00
2023-04-21T22:37:00,pkn,4.80
2023-04-21T22:38:00,pkn,1.20
2023-04-21T22:39:00,pkn,8.40
2023-04-21T22:40:00,pkn,4.80
2023-04-21T22:42:00,pkn,10.80
2023-04-21T22:44:00,pkn,8.40
2023-04-21T22:46:00,pkn,9.60
2023-04-21T22:47:00,pkn,6.00
2023-04-21T22:49:00,pkn,1.20
2023-04-21T22:51:00,pkn,1.20
2023-04-21T22:53:00,pkn,1.20
2023-04-21T22:55:00,pkn,1.20
2023-04-21T22:57:00,pkn,1.20
2023-04-21T22:59:00,pkn,1.20
2023-04-21T23:01:00,pkn,1.20
2023-04-21T23:02:00,pkn,1.20
2023-04-21T23:05:00,pkn,2.40
2023-04-21T23:07:00,pkn,1.20
2023-04-21T23:08:00,pkn,4.80
2023-04-21T23:10:00,pkn,8.40
2023-04-21T23:12:00,pkn,10.80
2023-04-21T23:14:00,pkn,9.60
2023-04-21T23:15:00,pkn,4.80
2023-04-21T23:17:00,pkn,4.80
2023-04-21T23:20:00,pkn,1.20
2023-04-21T23:22:00,pkn,2.40
2023-04-21T23:24:00,pkn,1.20
2023-04-21T23:26:00,pkn,2.40
2023-04-21T23:27:00,pkn,4.80
2023-04-21T23:29:00,pkn,9.60
2023-04-21T23:30:00,pkn,4.80
2023-04-21T23:32:00,pkn,9.60
2023-04-21T23:34:00,pkn,9.60
2023-04-21T23:36:00,pkn,9.60
2023-04-21T23:38:00,pkn,9.60
2023-04-21T23:39:00,pkn,4.80
2023-04-21T23:41:00,pkn,9.60
2023-04-21T23:42:00,pkn,1.20
2023-04-21T23:43:00,pkn,1.20
2023-04-21T23:45:00,pkn,1.20
2023-04-21T23:48:00,pkn,1.20